Tucson, AZ

6:34 AM MST on May 24, 2017 (GMT -0700)
Tucson International

Weather History for KTUS - January, 2012

Change the Weather History Date:

Monday, January 2, 2012

  Actual Average Record
Temperature  
Mean Temperature 67 °F 52 °F  
Max Temperature 76 °F 64 °F 83 °F (1918)
Min Temperature 58 °F 39 °F 19 °F (1911)
Degree Days  
Heating Degree Days 0 13  
Month to date heating degree days 3 26  
Since 1 July heating degree days 681 637  
Cooling Degree Days 2 0  
Month to date cooling degree days 2 0  
Year to date cooling degree days 2 0  
Growing Degree Days 18 (Base 50)    
Moisture  
Dew Point 21 °F    
Average Humidity 18    
Maximum Humidity 23    
Minimum Humidity 13    
Precipitation  
Precipitation 0.00 in 0.03 in 0.47 in (1982)
Month to date precipitation 0.00 0.06  
Year to date precipitation 0.00 0.06  
Snow  
Snow 0.00 in - - ()
Month to date snowfall 0.0  
Snow Depth 0.00 in    
Sea Level Pressure  
Sea Level Pressure 30.24 in    
Wind  
Wind Speed 17 mph (ESE)    
Max Wind Speed 29 mph    
Max Gust Speed 38 mph    
Visibility 10 miles    
Events      
T = Trace of Precipitation, MM = Missing Value Source: NWS Daily Summary

Daily Weather History Graph

Daily Weather History Graph

Search for Another Location

Airport or City:

Trip Planner

Search our weather history database for the weather conditions in past years. The results will help you decide how hot, cold, wet, or windy it might be!

Date:

Astronomy

Jan. 02, 2012 Rise Set
Actual Time 7:24 AM MST 5:30 PM MST
Civil Twilight 6:57 AM MST 5:57 PM MST
Nautical Twilight 6:27 AM MST 6:28 PM MST
Astronomical Twilight 5:57 AM MST 6:57 PM MST
Moon 12:41 PM MST (1/2) 1:30 AM MST (1/2)
Length of Visible Light 10h 59m
Length of Day
10h 05m
Waxing Gibbous, 64% of the Moon is Illuminated
Jan 2
Waxing Gibbous
Jan 9
Full
Jan 16
Last Quarter
Jan 23
New
Jan 30
First Quarter

Hourly Weather History & Observations

Time (MST) Temp. Dew Point Humidity Pressure Visibility Wind Dir Wind Speed Gust Speed Precip Events Conditions
12:53 AM 62.1 °F 23.0 °F 22% 30.20 in 10.0 mi East 12.7 mph - N/A   Clear
1:53 AM 60.1 °F 23.0 °F 24% 30.21 in 10.0 mi East 10.4 mph - N/A   Clear
2:53 AM 61.0 °F 23.0 °F 23% 30.20 in 10.0 mi ESE 15.0 mph 25.3 mph N/A   Clear
3:53 AM 60.1 °F 21.0 °F 22% 30.20 in 10.0 mi SE 25.3 mph - N/A   Clear
4:53 AM 60.8 °F 21.2 °F 22% 30.29 in 10.0 mi ESE 21.9 mph 33.4 mph N/A   Clear
5:53 AM 61.0 °F 21.0 °F 21% 30.22 in 10.0 mi ESE 20.7 mph 34.5 mph N/A   Clear
6:53 AM 60.1 °F 19.9 °F 21% 30.24 in 10.0 mi ESE 20.7 mph 28.8 mph N/A   Clear
7:53 AM 60.8 °F 19.4 °F 20% 30.34 in 10.0 mi ESE 23.0 mph 34.5 mph N/A   Clear
8:53 AM 62.6 °F 19.4 °F 19% 30.37 in 10.0 mi ESE 24.2 mph 34.5 mph N/A   Clear
9:53 AM 64.9 °F 19.9 °F 18% 30.30 in 10.0 mi ESE 25.3 mph 36.8 mph N/A   Clear
10:53 AM 68.0 °F 19.9 °F 16% 30.29 in 10.0 mi ESE 20.7 mph 32.2 mph N/A   Clear
11:53 AM 71.6 °F 19.4 °F 14% 30.33 in 10.0 mi ESE 24.2 mph 31.1 mph N/A   Clear
12:53 PM 73.9 °F 19.9 °F 13% 30.19 in 10.0 mi ESE 20.7 mph 31.1 mph N/A   Clear
1:53 PM 75.0 °F 21.0 °F 13% 30.17 in 10.0 mi ESE 20.7 mph 26.5 mph N/A   Clear
2:53 PM 75.9 °F 21.0 °F 13% 30.16 in 10.0 mi ESE 12.7 mph 25.3 mph N/A   Clear
3:53 PM 75.9 °F 21.0 °F 13% 30.16 in 10.0 mi ESE 12.7 mph - N/A   Clear
4:53 PM 73.4 °F 21.2 °F 14% 30.26 in 10.0 mi East 12.7 mph 18.4 mph N/A   Clear
5:53 PM 71.6 °F 19.4 °F 14% 30.27 in 10.0 mi East 12.7 mph - N/A   Clear
6:53 PM 66.0 °F 21.0 °F 18% 30.21 in 10.0 mi East 13.8 mph - N/A   Clear
7:53 PM 63.0 °F 21.0 °F 20% 30.22 in 10.0 mi ESE 12.7 mph - N/A   Clear
8:53 PM 62.1 °F 21.0 °F 21% 30.24 in 10.0 mi ESE 12.7 mph - N/A   Clear
9:53 PM 62.1 °F 21.0 °F 21% 30.23 in 10.0 mi ESE 11.5 mph - N/A   Clear
10:53 PM 61.0 °F 21.0 °F 21% 30.24 in 10.0 mi ESE 13.8 mph - N/A   Clear
11:53 PM 59.0 °F 21.0 °F 23% 30.23 in 10.0 mi East 10.4 mph - N/A   Clear